Showing default

BULGARIASAT-1, 42801

Orbit data source: Space-Track

BULGARIASAT-1, 42801 is a payload satellite owned by Bulgaria Sat (BG) in GEO that was launched on Fri, 23 Jun 2017 UTC via an FALCON 9 launch vehicle from the Air Force Eastern Test Range (AFETR). Payload-class satellites include a variety of spacecraft equipped with specific instruments for various scientific and technological missions. These include communications satellites like Starlink; space stations such as the ISS; scientific satellites like the Hubble; Earth observation satellites from companies like Planet Labs, Umbra, and HawkEye 360; GPS; miniature CubeSats for education and research; and military/defense satellites.

Not visible in the next 10 days
Identifier
42801, 2017-038A
Orbit
GEO
Country
Flag of BGBG / BGR
Related business
Manufacturer
SS/Loral (MDA)
Mission
Operational Commercial Communications
Bus & Motor
SSL-1300, R-4D-15-300
Mass
~4,000 kg wet, ~3,000 kg dry
Launch date (UTC)
2017-06-23 (9 years ago)
Launch vehicle
FALCON 9
Launch site
Air Force Eastern Test Range (AFETR)
Object type
Payload
Rocket body
Debris
Shape & HBR
Box + 2 Pan, 15.5 m
Radar Cross Section
40.765 m², Large (>1 m²)

Expand to show TLE details & history
Last TLE update: 10 hours ago

TLE from 10 hours ago
0 BULGARIASAT-1
1 42801U 17038A   26208.88979638  .00000015  00000-0  00000-0 0  9996
2 42801   0.0297  72.0179 0002864  59.6658 136.0918  1.00271001 33253
Epoch: 2026-07-27T21:21Z
TLE epoch observation values (Epoch: 2026-07-27T21:21:18.407Z)
Latitude
-0.01874°
Longitude
1.9156°
Altitude
35,795.072 km
Speed
3.074 km/s
True Right ascension
17h 51m 14s
True Declination
0° 01' 07"
Sunlit
Object was in daylight at epoch
Visualization orbit readout
Latitude
Unknown
Longitude
Unknown
Altitude
Unknown
Speed
Unknown
Apparent Right ascension
Unknown
Apparent Declination
Unknown
Sunlit
N/A
Visualization observer readout
Local Sidereal Time
20:17:42
Azimuth
Unknown
Elevation
Unknown
Doppler factor
Unknown
Orbital elements
Apogee altitude
35,799.961 km
Perigee altitude
35,775.809 km
Semi-major axis
42,166.022 km
Eccentricity
0.00029
Inclination
0.0297°
RAAN
72.0179°
Arg. of periapsis
59.6658°
True anomaly
136.11455°
Mean anomaly
136.0918°
Eccentric anomaly
136.10318°
Mean motion
0.25067 °/min
Orbital period
1,436.16 mins
BSTAR
0
Loading maneuver chart data...
Computing Atmospheric mass density...
Loading historical data...
Loading historical data...
Loading historical data...
Loading historical data...
Loading historical data...
Loading historical data...
Loading historical data...
Other satellites on launch #38 in the year 2017 (2017-06-23 UTC)

Documentation

Showing up to 5 results
|